Terminal Aerodrome Forecast
Issued by NWS

Home | Current Version | Previous Version | Text Only | Print | Product List | Glossary On
Versions: 1 2 3 4 5 6 7 8 9 10 11 12 13 14 15 16
000
FTUS43 KICT 230533
TAFCNU
TAF
KCNU 230533Z 2306/2406 16011KT P6SM SCT006 OVC015
     FM231600 24012KT 6SM BR OVC012
     FM232200 34020G28KT P6SM OVC020=

USA.gov is the U.S. government's official web portal to all federal, state and local government web resources and services.